Hourly Data Report for September 28, 2017

All times are specified in Local Standard Time (LST). Add 1 hour to adjust for Daylight Saving Time where and when it is observed.

CORAL HARBOUR A
NUNAVUT

64°11'36.000" N
83°21'34.000" W
62.20 m
2301002
71915
YZS

Download Data

Hourly Data (September 2017)
Hourly Data Report for September 28, 2017
Temp Definition
°C
Dew Point Temp Definition
°C
Rel Hum Definition
%
Wind Dir Definition
10's deg

Wind Spd Definition
km/h
Visibility Definition
km
Stn Press Definition
kPa
Hmdx Definition


Wind Chill Definition


Weather Definition


TIME
00:00 Legend Double Dagger 2.4 0.0 84 29 9 24.1 100.64     LegendNANA
01:00 Legend Double Dagger 1.5 0.2 91 20 13 24.1 100.62     Cloudy
02:00 Legend Double Dagger 0.1 -0.5 96 22 10 24.1 100.63     LegendNANA
03:00 Legend Double Dagger -0.9 -1.5 96 26 5 24.1 100.65   -3 LegendNANA
04:00 Legend Double Dagger 1.2 -0.5 88 28 14 24.1 100.64     Mostly Cloudy
05:00 Legend Double Dagger 1.3 -0.6 88 31 13 24.1 100.66     LegendNANA
06:00 Legend Double Dagger 0.9 0.0 93 27 11 24.1 100.67     LegendNANA
07:00 Legend Double Dagger 1.0 0.7 98 28 14 24.1 100.67     Mostly Cloudy
08:00 Legend Double Dagger 1.1 -0.2 91 1 24 19.3 100.70     Snow
09:00 Legend Double Dagger 0.3 -1.3 89 5 21 24.1 100.79     Snow
10:00 Legend Double Dagger -0.1 -2.9 81 1 22 24.1 100.83   -6 Snow
11:00 Legend Double Dagger 0.4 -3.5 75 36 22 24.1 100.89     LegendNANA
12:00 Legend Double Dagger 0.4 -5.2 66 36 25 24.1 100.94     LegendNANA
13:00 Legend Double Dagger 0.8 -5.1 65 36 17 24.1 100.98     Mostly Cloudy
14:00 Legend Double Dagger 0.9 -6.4 58 3 21 24.1 101.03     LegendNANA
15:00 Legend Double Dagger 0.7 -6.2 60 1 25 24.1 101.10     LegendNANA
16:00 Legend Double Dagger 0.8 -6.6 58 36 23 24.1 101.16     Mostly Cloudy
17:00 Legend Double Dagger 0.3 -6.5 60 35 15 24.1 101.19     LegendNANA
18:00 Legend Double Dagger -0.7 -6.4 66 36 16 24.1 101.26   -5 LegendNANA
19:00 Legend Double Dagger -1.9 -6.6 70 36 17 24.1 101.30   -7 Mainly Clear
20:00 Legend Double Dagger -2.7 -6.7 74 4 17 24.1 101.32   -8 LegendNANA
21:00 Legend Double Dagger -3.6 -6.5 80 31 12 24.1 101.33   -8 LegendNANA
22:00 Legend Double Dagger -4.4 -6.6 84 29 5 24.1 101.32   -7 Clear
23:00 Legend Double Dagger -4.7 -6.9 85 31 8 24.1 101.35   -8 LegendNANA

Notes on Data Quality.

Legend

  • E = Estimated
  • M = Missing
  • NA = Not Available
  • ‡ = Partner data that is not subject to review by the National Climate Archives
Date modified: